Dewpoint
54 54 55 55 56 56 56 56 57 57 57 57 57 57 57 58 58 54 43 37 43 67 70 65 61 53 64 63 64 63 57 53 53 54 59 62 62 64 64 61 57 62 58 62 65
54 55 55 56 56 56 56 56 56 56 56 56 56 57 57 58 53 47 50 53 58 67 51 53 49 48 53 62 62 61 57 56 55 58 59 62 62 62 61 60 59 57 61 63 66
54 55 55 55 56 56 56 56 56 56 56 56 57 56 57 57 50 45 57 58 62 66 32 42 46 48 49 52 61 57 56 55 55 59 61 62 61 61 59 59 61 56 60 62 65
55 55 55 55 56 55 56 56 56 55 55 56 57 56 58 53 28 44 61 64 66 49 31 32 42 46 46 49 51 52 54 55 53 58 57 58 62 61 61 61 62 58 61 62 63
54 55 55 55 55 55 55 55 55 55 55 55 57 57 51 45 34 51 62 67 61 40 32 32 43 45 45 48 50 51 51 50 51 56 58 58 58 60 62 64 64 59 60 61 62
54 55 55 55 55 55 55 55 54 54 54 55 58 57 46 32 41 60 55 60 54 41 35 39 42 47 48 45 47 48 48 47 53 59 58 57 60 60 62 65 63 59 59 59 61
54 54 54 54 54 54 54 54 54 54 54 55 58 53 48 31 46 57 54 55 49 41 37 33 41 46 50 49 47 46 45 42 59 59 59 61 59 58 63 64 63 61 58 59 59
54 54 54 54 54 54 54 54 53 54 54 56 59 52 45 47 49 53 55 51 48 43 35 35 38 41 47 48 41 34 32 28 56 59 60 59 52 60 64 64 62 62 59 59 58
54 54 53 53 54 54 53 53 53 54 55 58 51 49 43 50 43 40 53 43 46 44 41 32 36 38 39 40 34 33 32 32 40 60 59 59 55 60 63 63 62 61 59 59 58
54 54 54 54 53 53 52 52 52 55 56 54 52 44 38 31 23 21 41 43 46 40 37 34 31 30 36 36 34 32 32 30 27 55 58 57 56 60 61 62 61 61 59 58 58
54 54 54 53 53 52 50 41 30 32 46 34 31 35 33 32 18 20 21 38 36 38 35 32 30 31 34 37 36 32 30 29 30 30 27 55 55 60 61 62 61 60 60 57 58
54 54 53 53 53 52 48 29 30 28 24 31 37 38 36 34 22 16 23 25 34 32 34 36 33 37 39 36 33 32 30 30 30 29 29 38 55 60 62 61 61 60 59 58 58
54 54 53 52 52 47 37 31 33 34 25 23 26 26 24 30 18 12 22 26 34 34 35 34 36 38 38 38 35 32 30 30 29 28 55 55 55 58 61 61 62 62 61 60 58
54 54 53 51 39 39 32 32 36 28 19 18 21 19 15 11 9 14 27 23 24 32 34 35 36 36 34 35 35 32 32 31 28 24 19 50 43 55 58 58 60 62 61 60 58
53 53 52 50 43 36 30 38 36 23 14 19 13 13 10 7 11 13 16 14 18 18 29 31 28 35 32 30 32 31 32 28 26 21 20 24 29 39 57 56 57 61 62 61 60
53 52 50 46 43 42 42 33 24 17 15 13 12 9 8 9 11 14 15 14 15 13 16 14 17 21 27 29 30 31 29 21 21 19 16 17 18 35 53 54 56 59 61 61 61
52 50 49 46 29 37 35 26 19 15 19 16 11 10 8 9 11 13 13 12 10 8 7 13 13 17 21 21 22 23 20 18 17 16 15 19 17 18 48 55 55 57 60 57 59
50 49 49 46 42 40 28 23 19 20 20 21 14 9 13 11 12 12 12 16 18 13 7 6 6 12 17 19 20 19 19 17 14 16 17 21 16 21 37 46 54 56 57 58 59
49 45 43 41 44 33 27 22 22 23 24 22 21 21 22 22 17 14 20 22 21 20 10 14 14 17 17 16 18 22 20 19 18 23 16 19 21 27 41 42 44 55 59 59 60
46 44 39 42 37 30 32 30 25 27 25 24 21 24 23 23 22 21 22 24 24 23 20 19 14 16 16 16 16 18 23 22 19 15 14 19 21 31 37 36 40 53 57 59 60
45 35 35 36 34 31 28 27 26 28 27 25 25 25 25 25 25 23 26 26 28 25 24 26 16 14 14 15 14 17 18 18 21 20 18 18 26 34 37 35 36 45 54 57 55
44 30 37 35 29 30 26 27 31 28 28 28 28 27 26 26 26 26 28 29 31 27 26 25 19 16 16 20 20 20 19 17 17 18 20 23 25 25 34 32 31 55 54 55 59
42 42 38 33 27 28 28 27 29 29 28 27 26 27 27 25 25 27 29 28 33 32 34 27 20 14 11 14 21 20 21 22 17 12 12 10 16 21 23 22 27 51 59 62 62
37 30 33 32 32 28 28 29 28 31 31 31 30 28 26 25 27 26 26 28 30 33 42 28 21 19 16 19 21 20 21 21 19 17 16 12 16 16 20 23 25 31 45 58 62
36 32 35 30 30 30 30 30 30 30 31 32 32 30 27 28 28 28 28 28 28 33 32 25 24 27 23 22 23 22 24 23 20 21 19 17 18 17 21 22 26 37 42 45 50
37 35 34 32 30 30 32 30 31 31 30 31 32 31 31 30 30 28 29 29 27 28 26 30 27 28 25 28 26 23 24 23 23 21 21 21 22 23 28 29 38 39 39 38 40
44 42 33 34 32 31 31 32 32 32 33 34 34 32 32 33 34 33 32 30 30 28 26 28 28 26 22 28 24 20 24 25 25 25 23 22 26 35 35 35 38 38 38 38 38
Lifted_Index
16 16 15 15 15 15 15 14 14 14 14 15 14 14 14 14 14 13 13 12 10 6 3 4 4 3 1 -1 -2 -2 -1 -1 -1 -1 -1 -2 -2 -2 -2 -2 -1 -1 -1 -1 -1
16 15 15 15 15 15 15 14 14 15 15 15 15 14 14 13 13 12 12 12 9 6 5 6 6 3 0 -1 -2 -2 -1 -1 -1 -1 -2 -1 -2 -2 -2 -2 -1 -1 -1 -1 -1
15 15 15 15 15 15 14 14 14 15 15 14 14 14 14 13 11 10 10 10 8 7 8 9 7 2 -0 -1 -1 -1 -1 -1 -1 -1 -1 -1 -1 -1 -2 -1 -1 -1 -1 -1 -1
15 15 15 15 15 15 14 14 15 15 15 14 14 13 13 12 10 9 8 8 7 9 10 10 7 3 1 0 -1 -1 -1 0 0 -1 -1 -0 -1 -2 -2 -2 -1 -1 -1 -1 -2
15 15 15 15 15 15 15 15 15 15 15 14 13 12 12 11 9 8 7 6 7 10 11 10 7 4 3 1 -0 -0 0 1 1 -0 -0 -0 -0 -2 -2 -2 -2 -1 -1 -1 -2
16 15 15 15 15 15 15 15 15 15 14 13 12 12 11 10 8 7 7 7 8 11 11 10 7 5 3 2 1 1 1 2 1 -0 -1 -1 -1 -2 -2 -2 -2 -1 -1 -1 -1
16 15 15 15 15 15 15 15 15 15 14 12 11 11 10 9 8 7 7 8 9 10 11 10 7 5 3 2 2 2 2 2 -0 -1 -1 -1 -1 -2 -2 -2 -2 -1 -1 -1 -1
15 15 15 15 15 15 15 15 15 14 13 11 10 10 9 8 7 7 7 7 8 9 11 10 7 4 3 3 2 2 2 1 -1 -2 -2 -2 -2 -2 -3 -3 -2 -1 -1 -1 -1
15 15 15 15 15 15 15 15 13 12 11 10 9 9 8 8 8 8 7 7 7 8 10 10 6 4 3 3 3 3 2 1 -0 -2 -2 -2 -2 -2 -3 -3 -2 -2 -1 -1 -1
14 14 14 14 15 15 15 14 12 10 9 9 9 9 8 8 9 9 9 8 7 7 8 8 5 3 2 2 3 3 2 2 1 0 -1 -1 -2 -3 -3 -3 -3 -2 -1 -1 -1
14 14 14 14 14 14 14 12 11 9 9 9 9 9 9 9 9 10 9 8 7 6 7 6 4 3 2 2 3 3 3 3 3 3 2 1 -1 -2 -3 -3 -3 -2 -2 -1 -1
13 13 13 13 13 13 11 11 10 9 8 8 9 9 8 9 9 9 8 8 7 6 6 5 4 3 2 3 3 4 4 4 4 4 3 1 -1 -2 -3 -3 -3 -2 -2 -1 -1
12 12 12 11 11 9 9 9 9 8 7 7 7 8 8 8 8 8 7 7 6 6 6 5 4 3 3 3 4 4 4 4 4 3 1 -0 -1 -2 -2 -2 -3 -2 -2 -1 -0
11 11 11 10 8 7 7 7 7 7 6 6 6 7 8 8 8 8 7 6 6 6 5 5 4 4 4 4 4 4 4 3 3 3 2 0 -1 -1 -2 -2 -2 -3 -2 -1 -0
9 9 9 8 7 6 6 6 6 5 4 4 6 6 7 7 8 8 7 6 6 6 5 5 5 5 5 5 4 4 4 4 3 3 3 2 2 1 -1 -2 -2 -3 -3 -2 -1
8 8 8 7 6 6 6 5 4 3 3 4 5 5 6 6 7 7 7 7 6 6 6 6 6 6 6 6 5 5 4 4 3 3 3 3 3 2 0 -1 -2 -2 -3 -2 -2
7 8 7 7 6 6 5 4 3 2 2 3 4 4 5 6 6 6 6 7 7 6 6 5 5 6 6 6 6 5 4 3 2 2 2 3 3 2 1 -1 -2 -2 -2 -2 -2
6 6 6 6 6 5 4 3 2 2 2 3 3 4 4 4 5 5 6 6 7 7 6 5 5 6 7 6 6 5 4 3 2 1 2 3 2 2 2 1 -1 -2 -2 -2 -2
5 5 5 5 5 4 3 2 1 2 2 2 2 3 3 4 4 4 5 6 7 7 6 5 5 6 7 7 6 5 4 4 3 2 2 2 2 2 2 1 0 -1 -2 -2 -3
3 3 4 4 4 3 2 1 1 1 1 2 2 2 2 3 3 4 5 6 6 7 7 6 6 6 6 6 6 5 4 4 4 3 2 2 2 2 2 2 1 -0 -1 -2 -3
2 3 3 3 3 2 1 1 1 1 1 1 1 2 2 2 3 4 5 5 6 6 6 6 5 5 5 5 5 5 4 4 4 3 2 2 3 3 3 2 1 -0 -1 -2 -2
2 2 3 3 2 2 1 1 2 2 2 1 1 2 2 2 2 3 4 5 5 5 5 5 4 3 4 5 5 5 4 4 4 4 3 3 4 5 5 4 1 -1 -1 -1 -2
1 2 3 3 2 2 2 3 3 4 3 2 2 3 3 3 3 3 4 5 5 4 4 4 4 3 3 4 5 5 5 4 4 3 3 3 5 7 7 5 3 -0 -2 -2 -2
2 2 3 3 3 3 3 4 5 5 5 4 4 4 4 4 4 4 4 5 5 5 4 4 4 3 3 4 4 4 5 5 4 3 3 3 5 7 8 7 5 3 0 -2 -2
3 3 3 4 4 4 4 5 6 6 6 6 6 6 6 6 5 5 5 5 5 5 5 5 4 4 4 5 4 4 4 4 4 4 3 4 5 7 8 8 7 6 4 2 -0
3 4 4 4 4 4 5 5 6 6 6 6 6 7 7 6 6 6 6 6 6 6 6 6 5 5 4 5 4 4 4 5 5 5 4 5 6 7 8 8 8 8 7 5 3
3 4 4 4 5 5 5 5 6 6 6 6 7 7 7 6 6 6 6 6 6 7 7 7 6 4 4 4 4 3 4 5 5 5 5 5 6 7 7 8 8 8 8 7 5